Bogota, Colombia

5:14 AM -05 on February 21, 2018 (GMT -0500)
Eldorado International

Weather History for SKBO - December, 2012

Change the Weather History Date:

Sunday, December 9, 2012

  Actual Average Record
Temperature  
Mean Temperature 58 °F -  
Max Temperature 69 °F 66 °F 71 °F (1997)
Min Temperature 48 °F 44 °F 32 °F (1997)
Degree Days  
Heating Degree Days 6    
Growing Degree Days 8 (Base 50)    
Moisture  
Dew Point 45 °F    
Average Humidity 63    
Maximum Humidity 94    
Minimum Humidity 30    
Precipitation  
Precipitation 0.00 in 0.06 in - ()
Sea Level Pressure  
Sea Level Pressure 30.32 in    
Wind  
Wind Speed 7 mph ()    
Max Wind Speed 23 mph    
Max Gust Speed -    
Visibility 7.4 miles    
Events      
Averages and records for this station are not official NWS values.
T = Trace of Precipitation, MM = Missing Value Source: Averaged Metar Reports

Daily Weather History Graph

Daily Weather History Graph

Search for Another Location

Airport or City:

Trip Planner

Search our weather history database for the weather conditions in past years. The results will help you decide how hot, cold, wet, or windy it might be!

Date:

Astronomy

Dec. 09, 2012 Rise Set
Actual Time 5:53 AM -05 5:44 PM -05
Civil Twilight 5:30 AM -05 6:07 PM -05
Nautical Twilight 5:04 AM -05 6:33 PM -05
Astronomical Twilight 4:38 AM -05 6:59 PM -05
Moon 2:01 AM -05 (12/9) 2:18 PM -05 (12/9)
Length of Visible Light 12h 36m
Length of Day
11h 51m
Waning Crescent, 19% of the Moon is Illuminated
Dec 9
Waning Crescent
Dec 13
New
Dec 20
First Quarter
Dec 28
Full
Jan 4
Last Quarter

Hourly Weather History & Observations

Time (-05) Temp. Dew Point Humidity Pressure Visibility Wind Dir Wind Speed Gust Speed Precip Events Conditions
12:00 AM 53.6 °F 48.2 °F 82% 30.34 in 6.2 mi NNE 4.6 mph - N/A   Partly Cloudy
1:00 AM 51 °F 47 °F 83%  in 11 mi NE 4.5 mph - -   Haze
1:00 AM 50.0 °F 48.2 °F 94% 30.32 in 6.2 mi NE 4.6 mph - N/A   Partly Cloudy
2:00 AM 51.8 °F 44.6 °F 76% 30.30 in 6.2 mi NE 4.6 mph - N/A   Scattered Clouds
3:00 AM 51.8 °F 46.4 °F 82% 30.29 in 6.2 mi Variable 2.3 mph - N/A   Scattered Clouds
4:00 AM 51 °F 47 °F 82%  in 11 mi North 2.2 mph - -   Haze
4:00 AM 50.0 °F 46.4 °F 87% 30.30 in 6.2 mi Variable 2.3 mph - N/A   Partly Cloudy
5:00 AM 48.2 °F 44.6 °F 87% - 6.2 mi NE 4.6 mph - N/A   Partly Cloudy
5:28 AM 48.2 °F 44.6 °F 87% 30.32 in 6.2 mi NE 4.6 mph - N/A   Partly Cloudy
6:00 AM 50.0 °F 46.4 °F 87% 30.33 in 6.2 mi NE 6.9 mph - N/A   Scattered Clouds
7:00 AM 53 °F 47 °F 73%  in 11 mi East 11.2 mph - -   Haze
7:00 AM 53.6 °F 46.4 °F 77% 30.34 in 6.2 mi East 5.8 mph - N/A   Scattered Clouds
8:00 AM 59.0 °F 46.4 °F 63% 30.35 in 6.2 mi ESE 9.2 mph - N/A   Partly Cloudy
9:00 AM 62.6 °F 46.4 °F 55% 30.37 in 6.2 mi East 11.5 mph - N/A   Scattered Clouds
10:00 AM 65 °F 46 °F 39%  in 11 mi SE 17.9 mph - -   Haze
10:00 AM 64.4 °F 46.4 °F 52% 30.36 in 6.2 mi SE 18.4 mph - N/A   Mostly Cloudy
11:00 AM 66.2 °F 44.6 °F 46% 30.35 in 6.2 mi SE 17.3 mph - N/A   Mostly Cloudy
12:00 PM 66.2 °F 44.6 °F 46% 30.32 in 6.2 mi ESE 16.1 mph - N/A   Mostly Cloudy
1:00 PM 69 °F 44 °F 30%  in 11 mi SE 22.4 mph - -   Haze
1:00 PM 69.8 °F 44.6 °F 40% 30.30 in 6.2 mi SE 23.0 mph - N/A   Scattered Clouds
2:00 PM 68.0 °F 44.6 °F 43% 30.28 in 6.2 mi SE 11.5 mph - N/A   Scattered Clouds
3:00 PM 68.0 °F 42.8 °F 40% 30.25 in 6.2 mi East 13.8 mph - N/A   Scattered Clouds
4:00 PM 68 °F 46 °F 33%  in 11 mi South 13.4 mph - -   Haze
4:00 PM 68.0 °F 46.4 °F 46% 30.25 in 6.2 mi ESE 13.8 mph - N/A   Scattered Clouds
5:00 PM 64.4 °F 42.8 °F 45% 30.25 in 6.2 mi ESE 11.5 mph - N/A   Scattered Clouds
6:00 PM 62.6 °F 42.8 °F 48% 30.25 in 6.2 mi SE 11.5 mph - N/A   Mostly Cloudy
7:00 PM 60 °F 45 °F 46%  in 11 mi ESE 8.9 mph - -   Haze
7:00 PM 60.8 °F 44.6 °F 55% 30.29 in 6.2 mi ESE 9.2 mph - N/A   Partly Cloudy
8:00 PM 59.0 °F 44.6 °F 59% 30.33 in 6.2 mi Calm Calm - N/A   Unknown
9:00 PM 53.6 °F 42.8 °F 67% 30.36 in 6.2 mi ESE 8.1 mph - N/A   Partly Cloudy
10:00 PM 53 °F 46 °F 69%  in 11 mi North 4.5 mph - -   Haze
10:00 PM 51.8 °F 46.4 °F 82% 30.36 in 6.2 mi North 3.5 mph - N/A   Partly Cloudy
11:00 PM 50.0 °F 44.6 °F 82% 30.36 in 6.2 mi NNE 3.5 mph - N/A   Partly Cloudy